KD8BMB Weather Reports


time (UTC)temp
C
wind
direction
speed
KPH
gust
KPH
rain 1hr
cm
rain 24hr
cm
rain mn
cm
humidity
%
barometer
mb
20260506135414 7 64 0.0 1.6 0.00 0.00 0.00 71 1012.4
20260506134910 7 34 3.2 3.2 0.00 0.00 0.00 70 1012.6
20260506134406 7 358 3.2 4.8 0.00 0.00 0.00 71 1012.7
20260506133903 6 52 1.6 3.2 0.00 0.00 0.00 72 1012.5
20260506133400 6 88 4.8 8.0 0.00 0.00 0.00 73 1012.3
20260506132857 6 34 3.2 4.8 0.00 0.00 0.00 74 1012.2
20260506132354 6 349 0.0 1.6 0.00 0.00 0.00 74 1012.4
20260506131852 6 340 6.4 9.7 0.00 0.00 0.00 75 1012.3
20260506131348 6 30 1.6 3.2 0.00 0.00 0.00 75 1012.3
20260506130845 6 57 3.2 3.2 0.00 0.00 0.00 75 1012.2
20260506130341 5 341 1.6 4.8 0.00 0.00 0.00 76 1012.3
20260506125840 6 66 0.0 1.6 0.00 0.00 0.00 75 1012.1
20260506125338 6 54 0.0 0.0 0.00 0.00 0.00 74 1012.2
20260506124836 5 24 3.2 3.2 0.00 0.00 0.00 74 1012.0
20260506124332 6 4 1.6 3.2 0.00 0.00 0.00 73 1012.3
20260506123830 5 11 1.6 1.6 0.00 0.00 0.00 73 1012.2
20260506123328 5 57 1.6 3.2 0.00 0.00 0.00 74 1012.1
20260506122825 5 72 4.8 8.0 0.00 0.00 0.00 75 1011.9
20260506122322 5 353 0.0 0.0 0.00 0.00 0.00 77 1011.8
20260506121820 4 47 3.2 3.2 0.00 0.00 0.00 78 1011.8
20260506121317 4 70 1.6 1.6 0.00 0.00 0.00 77 1011.5
20260506120814 4 77 1.6 3.2 0.00 0.00 0.00 78 1011.7
20260506120312 4 61 0.0 1.6 0.00 0.00 0.00 79 1011.5
20260506115809 3 45 1.6 1.6 0.00 0.00 0.00 80 1011.7
20260506115307 3 65 6.4 11.3 0.00 0.00 0.00 80 1011.5
20260506114805 3 65 3.2 3.2 0.00 0.00 0.00 84 1011.5
20260506114303 3 295 4.8 8.0 0.00 0.00 0.00 84 1011.4
20260506113801 3 355 3.2 3.2 0.00 0.00 0.00 85 1011.5
20260506113258 3 109 1.6 3.2 0.00 0.00 0.00 85 1011.5
20260506112754 3 9 8.0 9.7 0.00 0.00 0.00 86 1011.3
20260506112252 3 17 3.2 3.2 0.00 0.00 0.00 86 1011.4
20260506111749 3 0 3.2 4.8 0.00 0.00 0.00 87 1011.3
20260506111247 3 11 3.2 3.2 0.00 0.00 0.00 88 1011.1
20260506110744 2 74 0.0 1.6 0.00 0.00 0.00 90 1010.7
20260506110242 2 16 3.2 4.8 0.00 0.00 0.00 91 1011.1
20260506105738 2 25 4.8 4.8 0.00 0.00 0.00 92 1010.8
20260506105235 2 325 0.0 0.0 0.00 0.00 0.00 92 1010.8
20260506104732 2 323 0.0 0.0 0.00 0.00 0.00 92 1010.8
20260506104230 2 320 0.0 0.0 0.00 0.00 0.00 91 1010.7
20260506103727 2 325 0.0 0.0 0.00 0.00 0.00 90 1010.4
20260506103224 2 329 0.0 0.0 0.00 0.00 0.00 89 1010.4
20260506102722 2 315 0.0 0.0 0.00 0.00 0.00 89 1010.2
20260506102220 2 311 0.0 0.0 0.00 0.00 0.00 88 1010.2
20260506101716 2 274 0.0 0.0 0.00 0.00 0.00 87 1009.9
20260506101213 3 348 0.0 0.0 0.00 0.00 0.00 86 1010.0
20260506100711 3 339 0.0 0.0 0.00 0.00 0.00 86 1009.8
20260506100209 3 5 1.6 3.2 0.00 0.00 0.00 85 1009.6
20260506095707 3 324 0.0 0.0 0.00 0.00 0.00 85 1010.0
20260506095204 3 328 0.0 0.0 0.00 0.00 0.00 84 1009.5
20260506094701 3 349 0.0 0.0 0.00 0.00 0.00 83 1009.3
20260506094158 3 7 0.0 0.0 0.00 0.00 0.00 83 1009.5
20260506093657 3 42 0.0 0.0 0.00 0.00 0.00 83 1009.5
20260506093154 4 39 1.6 1.6 0.00 0.00 0.00 83 1009.3
20260506092651 4 14 0.0 0.0 0.00 0.00 0.00 82 1009.7
20260506092149 4 53 0.0 1.6 0.00 0.00 0.00 83 1009.6
20260506091647 4 32 1.6 1.6 0.00 0.00 0.00 82 1009.5
20260506091144 4 13 0.0 0.0 0.00 0.00 0.00 82 1009.4
20260506090642 4 8 0.0 0.0 0.00 0.00 0.00 83 1009.3
20260506090138 4 33 1.6 3.2 0.00 0.00 0.00 83 1009.4
20260506085635 5 52 1.6 1.6 0.00 0.00 0.00 84 1009.5
20260506085131 5 19 1.6 1.6 0.00 0.00 0.00 86 1009.5
20260506084628 5 330 0.0 0.0 0.00 0.00 0.00 86 1009.5
20260506084124 5 343 0.0 0.0 0.00 0.00 0.00 87 1009.5
20260506083621 5 350 1.6 1.6 0.00 0.00 0.00 88 1009.5
20260506083119 5 5 3.2 3.2 0.00 0.00 0.00 91 1009.6
20260506082616 5 306 0.0 0.0 0.00 0.00 0.00 92 1009.6
20260506082111 5 21 0.0 1.6 0.00 0.00 0.00 93 1009.3
20260506081610 5 15 1.6 1.6 0.00 0.00 0.00 93 1009.5
20260506081107 5 324 0.0 0.0 0.00 0.00 0.00 94 1009.7
20260506080605 5 316 0.0 0.0 0.00 0.00 0.00 93 1009.6
20260506073044 6 325 0.0 0.0 0.00 0.00 0.00 91 1009.0
20260506072542 6 311 0.0 0.0 0.00 0.00 0.00 91 1009.2
20260506072039 6 313 0.0 0.0 0.00 0.00 0.00 91 1009.0
20260506071537 6 320 0.0 0.0 0.00 0.00 0.00 90 1009.3
20260506071034 6 311 1.6 1.6 0.00 0.00 0.00 90 1009.1
20260506070531 6 300 0.0 1.6 0.00 0.00 0.00 90 1008.9
20260506062509 7 324 0.0 0.0 0.00 0.00 0.00 86 1009.0
20260506062005 7 3 0.0 0.0 0.00 0.00 0.00 85 1009.1
20260506061501 7 309 0.0 0.0 0.00 0.00 0.00 85 1009.1
20260506060959 7 298 0.0 0.0 0.00 0.00 0.00 84 1009.3
20260506060457 7 308 0.0 0.0 0.00 0.00 0.00 84 1009.2
20260506050926 7 290 3.2 3.2 0.00 0.00 0.00 70 1008.8
20260506050424 8 302 0.0 0.0 0.00 0.00 0.00 67 1009.0
20260506044914 8 310 1.6 1.6 0.00 0.00 0.00 65 1009.1
20260506044412 8 299 0.0 0.0 0.00 0.00 0.00 64 1008.8
20260506043909 8 281 0.0 0.0 0.00 0.00 0.00 65 1008.5
20260506043406 8 326 1.6 1.6 0.00 0.00 0.00 64 1008.6
20260506042904 8 302 3.2 3.2 0.00 0.00 0.00 65 1008.6
20260506042403 8 275 0.0 0.0 0.00 0.00 0.00 66 1008.6
20260506041901 8 308 0.0 0.0 0.00 0.00 0.00 66 1008.6
20260506041358 8 267 0.0 0.0 0.00 0.00 0.00 65 1008.4
20260506040855 8 273 0.0 0.0 0.00 0.00 0.00 65 1008.7
20260506040353 8 269 0.0 0.0 0.00 0.00 0.00 66 1008.7
20260506035849 8 285 0.0 1.6 0.00 0.03 0.03 65 1008.7
20260506035346 8 284 0.0 0.0 0.00 0.03 0.03 65 1008.5
20260506034843 8 253 1.6 1.6 0.00 0.03 0.03 66 1008.8
20260506034340 8 288 0.0 0.0 0.00 0.03 0.03 66 1008.6
20260506033837 8 253 1.6 1.6 0.00 0.03 0.03 65 1008.7
20260506033334 8 262 3.2 3.2 0.00 0.03 0.03 65 1008.4
20260506032831 8 301 0.0 0.0 0.00 0.03 0.03 65 1008.5
20260506032328 8 277 0.0 0.0 0.00 0.03 0.03 64 1008.2
20260506031825 8 284 1.6 1.6 0.00 0.03 0.03 63 1008.5
20260506031322 8 267 0.0 1.6 0.00 0.03 0.03 64 1008.6
20260506030820 8 238 0.0 0.0 0.00 0.03 0.03 62 1008.2
20260506030318 8 229 1.6 1.6 0.00 0.03 0.03 62 1008.4
20260506025814 8 278 0.0 0.0 0.00 0.03 0.03 61 1008.4
20260506025311 8 260 0.0 0.0 0.00 0.03 0.03 61 1008.2
20260506024808 8 267 1.6 1.6 0.00 0.03 0.03 60 1008.1
20260506024304 8 292 0.0 1.6 0.00 0.03 0.03 61 1008.2
20260506023800 8 274 1.6 1.6 0.00 0.03 0.03 60 1008.6
20260506023258 8 241 0.0 0.0 0.00 0.03 0.03 60 1008.0
20260506022754 9 235 3.2 3.2 0.00 0.03 0.03 58 1008.1
20260506022252 9 281 1.6 1.6 0.00 0.03 0.03 59 1008.0
20260506021750 9 282 1.6 1.6 0.00 0.03 0.03 58 1008.2
20260506021247 9 284 1.6 1.6 0.00 0.03 0.03 58 1008.0
20260506020743 9 244 1.6 3.2 0.00 0.03 0.03 57 1008.2
20260506020241 9 252 0.0 0.0 0.00 0.03 0.03 57 1008.1
20260506015739 10 257 3.2 3.2 0.00 0.03 0.03 56 1007.9
20260506015236 10 250 3.2 3.2 0.00 0.03 0.03 56 1007.8
20260506014733 10 283 1.6 1.6 0.00 0.03 0.03 55 1007.9
20260506014229 10 277 0.0 0.0 0.00 0.03 0.03 55 1007.7
20260506013726 10 276 9.7 11.3 0.00 0.03 0.03 54 1007.7
20260506013224 10 295 0.0 1.6 0.00 0.03 0.03 55 1007.6
20260506012720 10 265 0.0 1.6 0.00 0.03 0.03 54 1007.7
20260506012217 10 299 0.0 1.6 0.00 0.03 0.03 54 1007.6
20260506011714 10 241 3.2 4.8 0.00 0.03 0.03 53 1007.3
20260506011210 10 308 0.0 1.6 0.00 0.03 0.03 53 1007.6
20260506010709 10 261 0.0 0.0 0.00 0.03 0.03 53 1007.4
20260506010206 10 238 0.0 0.0 0.00 0.03 0.03 53 1007.4
20260506005703 10 238 6.4 8.0 0.00 0.03 0.03 52 1007.3
20260506005200 11 291 1.6 3.2 0.00 0.03 0.03 51 1007.3
20260506004655 10 272 4.8 4.8 0.00 0.03 0.03 51 1007.2
20260506004153 11 272 0.0 1.6 0.00 0.03 0.03 52 1007.3
20260506003649 11 125 1.6 1.6 0.00 0.03 0.03 51 1007.5
20260506003146 11 231 4.8 8.0 0.00 0.03 0.03 50 1007.3
20260506002641 11 212 4.8 4.8 0.00 0.03 0.03 50 1007.4
20260506002138 11 287 4.8 8.0 0.00 0.03 0.03 50 1007.5
20260506001633 11 198 3.2 3.2 0.00 0.03 0.03 49 1007.4
20260506001131 11 247 6.4 8.0 0.00 0.03 0.03 48 1007.3
20260506000628 11 258 1.6 1.6 0.00 0.03 0.03 49 1007.3
20260506000125 11 268 6.4 8.0 0.00 0.03 0.03 48 1007.1
20260505235624 11 292 8.0 12.9 0.00 0.03 0.03 47 1007.0
20260505235120 11 244 8.0 11.3 0.00 0.03 0.03 47 1006.9
20260505234617 11 229 9.7 11.3 0.00 0.03 0.03 47 1006.8
20260505234114 11 307 3.2 3.2 0.00 0.03 0.03 49 1006.8
20260505233611 11 323 3.2 4.8 0.00 0.03 0.03 48 1006.8
20260505233109 11 248 3.2 3.2 0.00 0.03 0.03 47 1006.6
20260505232606 12 335 11.3 12.9 0.00 0.03 0.03 46 1006.5
20260505232104 12 205 9.7 12.9 0.00 0.03 0.03 46 1006.8
20260505231600 12 227 4.8 8.0 0.00 0.03 0.03 45 1006.7
20260505231059 12 233 8.0 9.7 0.00 0.03 0.03 45 1006.7
20260505230556 12 269 11.3 14.5 0.00 0.03 0.03 44 1006.6
20260505230052 12 261 8.0 9.7 0.00 0.03 0.03 43 1006.4
20260505225549 12 271 4.8 4.8 0.00 0.03 0.03 43 1006.6
20260505225045 12 291 1.6 1.6 0.00 0.03 0.03 43 1006.7
20260505224543 12 289 4.8 4.8 0.00 0.03 0.03 43 1006.6
20260505224040 12 277 4.8 8.0 0.00 0.03 0.03 42 1006.7
20260505223537 12 209 4.8 4.8 0.00 0.03 0.03 42 1006.8
20260505223033 12 276 14.5 20.9 0.00 0.03 0.03 41 1007.0
20260505222529 13 324 16.1 20.9 0.00 0.03 0.03 41 1006.7
20260505222026 13 238 1.6 3.2 0.00 0.03 0.03 43 1006.7
20260505221523 13 311 4.8 8.0 0.00 0.03 0.03 42 1006.6
20260505221019 13 249 8.0 11.3 0.00 0.03 0.03 43 1006.5
20260505220517 13 265 4.8 4.8 0.00 0.03 0.03 42 1006.7
20260505220015 13 256 11.3 14.5 0.00 0.03 0.03 41 1006.8
20260505215512 13 243 17.7 20.9 0.00 0.03 0.03 42 1006.7
20260505215010 13 249 4.8 8.0 0.00 0.03 0.03 42 1006.5
20260505214508 13 206 3.2 3.2 0.00 0.03 0.03 43 1006.7
20260505214004 13 319 8.0 11.3 0.00 0.03 0.03 42 1006.7
20260505213502 13 236 3.2 4.8 0.00 0.03 0.03 44 1006.7
20260505212958 13 226 9.7 14.5 0.00 0.03 0.03 42 1006.4
20260505212455 13 285 3.2 4.8 0.00 0.03 0.03 43 1006.6
20260505211952 13 290 3.2 4.8 0.00 0.03 0.03 44 1006.6
20260505211449 13 246 4.8 9.7 0.00 0.03 0.03 43 1006.8
20260505210945 13 259 4.8 8.0 0.00 0.03 0.03 44 1006.7
20260505210443 13 282 3.2 3.2 0.00 0.03 0.03 44 1006.7
20260505205939 13 198 1.6 3.2 0.00 0.03 0.03 46 1006.6
20260505205438 13 294 6.4 11.3 0.00 0.03 0.03 45 1006.6
20260505204934 13 236 4.8 8.0 0.00 0.03 0.03 45 1006.6
20260505204432 14 247 6.4 9.7 0.00 0.03 0.03 49 1006.5
20260505203929 13 229 3.2 3.2 0.00 0.03 0.03 50 1006.5
20260505203425 13 307 4.8 4.8 0.00 0.03 0.03 49 1006.5
20260505202922 14 199 3.2 4.8 0.00 0.03 0.03 48 1006.5
20260505202418 13 241 8.0 9.7 0.00 0.03 0.03 52 1006.8
20260505201915 13 211 3.2 3.2 0.00 0.03 0.03 55 1006.5
20260505201412 13 291 9.7 11.3 0.00 0.03 0.03 53 1006.7
20260505200910 13 208 8.0 14.5 0.00 0.03 0.03 54 1006.9
20260505200407 13 237 4.8 8.0 0.00 0.03 0.03 54 1006.8
20260505195902 13 219 8.0 9.7 0.00 0.03 0.03 51 1006.4
20260505195400 13 253 6.4 9.7 0.00 0.03 0.03 51 1006.6
20260505194857 13 233 4.8 4.8 0.00 0.03 0.03 52 1006.8
20260505194354 13 281 9.7 11.3 0.00 0.03 0.03 50 1006.8
20260505193849 13 354 3.2 3.2 0.00 0.03 0.03 51 1006.4
20260505193347 13 264 3.2 4.8 0.00 0.03 0.03 52 1006.6
20260505192844 13 240 3.2 4.8 0.00 0.03 0.03 52 1006.5
20260505192343 13 230 8.0 11.3 0.00 0.03 0.03 53 1006.6
20260505191840 13 248 8.0 9.7 0.00 0.03 0.03 54 1006.5
20260505191338 13 221 4.8 8.0 0.00 0.03 0.03 55 1006.8
20260505190835 14 266 9.7 12.9 0.00 0.03 0.03 54 1006.6
20260505190330 13 214 4.8 8.0 0.00 0.03 0.03 55 1006.4
20260505185826 15 177 3.2 3.2 0.00 0.03 0.03 58 1006.7
20260505185322 13 256 0.0 1.6 0.00 0.03 0.03 59 1006.6
20260505184819 13 224 3.2 8.0 0.00 0.03 0.03 60 1006.4
20260505184316 13 174 8.0 12.9 0.00 0.03 0.03 61 1006.7
20260505183813 13 272 4.8 9.7 0.00 0.03 0.03 60 1006.5
20260505183310 13 261 3.2 4.8 0.00 0.03 0.03 61 1006.2
20260505182807 13 307 4.8 8.0 0.00 0.03 0.03 62 1006.3
20260505182306 13 291 8.0 9.7 0.00 0.03 0.03 61 1006.3
20260505181800 13 254 3.2 3.2 0.00 0.03 0.03 70 1006.3
20260505181257 13 230 1.6 3.2 0.00 0.03 0.03 70 1006.2
20260505180754 13 223 1.6 3.2 0.00 0.03 0.03 69 1006.2
20260505180250 13 280 11.3 16.1 0.00 0.03 0.03 67 1006.3
20260505175747 13 245 1.6 3.2 0.00 0.03 0.03 69 1006.1
20260505175243 12 277 1.6 3.2 0.00 0.03 0.03 71 1006.1
20260505174740 12 315 8.0 11.3 0.00 0.03 0.03 72 1006.0
20260505174237 12 286 4.8 8.0 0.00 0.03 0.03 72 1006.1
20260505173733 12 227 8.0 9.7 0.00 0.03 0.03 72 1005.8
20260505173230 12 227 3.2 4.8 0.00 0.03 0.03 73 1006.1
20260505172727 12 213 4.8 4.8 0.00 0.03 0.03 74 1006.3
20260505172224 12 200 1.6 1.6 0.00 0.03 0.03 73 1006.3
20260505171724 12 253 0.0 0.0 0.00 0.03 0.03 74 1006.0
20260505171221 11 293 1.6 3.2 0.00 0.03 0.03 73 1006.2
20260505170718 12 256 3.2 3.2 0.00 0.03 0.03 73 1006.1
20260505170215 11 308 0.0 0.0 0.00 0.03 0.03 73 1006.0
20260505165710 12 279 0.0 0.0 0.00 0.03 0.03 73 1006.0
20260505165206 11 338 0.0 0.0 0.00 0.03 0.03 74 1006.0
20260505164702 12 1 0.0 1.6 0.00 0.03 0.03 74 1006.3
20260505164159 11 261 3.2 4.8 0.00 0.03 0.03 75 1006.4
20260505163657 11 273 3.2 4.8 0.00 0.03 0.03 77 1006.4
20260505163155 11 274 0.0 0.0 0.00 0.03 0.03 78 1006.5
20260505162653 11 268 3.2 4.8 0.00 0.03 0.03 77 1006.1
20260505162150 11 221 1.6 3.2 0.00 0.03 0.03 80 1006.4
20260505161646 10 216 1.6 1.6 0.00 0.03 0.03 81 1006.4
20260505161144 10 274 1.6 3.2 0.00 0.03 0.03 82 1006.3
20260505160642 10 273 4.8 4.8 0.00 0.03 0.03 80 1006.4
20260505160139 10 320 1.6 1.6 0.00 0.03 0.03 81 1006.3
20260505153118 10 267 0.0 0.0 0.00 0.03 0.03 81 1006.9
20260505152615 10 224 1.6 1.6 0.00 0.03 0.03 83 1006.5
20260505152110 10 293 0.0 0.0 0.00 0.03 0.03 85 1006.7
20260505151606 9 287 0.0 0.0 0.00 0.03 0.03 85 1006.3
20260505151104 9 287 0.0 0.0 0.00 0.03 0.03 87 1006.4
20260505150600 9 269 0.0 0.0 0.00 0.03 0.03 87 1006.5
20260505140525 9 284 0.0 0.0 0.00 0.00 0.00 76 1006.0